951  
ASUS42 KCAE 271510  
RWRCAE  
REGIONAL WEATHER ROUNDUP  
NATIONAL WEATHER SERVICE COLUMBIA SC  
1100 AM EDT TUE JUN 27 2017  
 
NOTE: "FAIR" INDICATES FEW OR NO CLOUDS BELOW 12,000 FEET WITH NO  
SIGNIFICANT WEATHER AND/OR S TO VISIBILITY
.  
 
NOT ALL STATIONS ARE QUALITY CONTROLLED BY THE NATIONAL  
WEATHER SERVICE. USE DATA WITH CAUTION...ESPECIALLY  
DEWPOINT OBSERVATIONS.  
 
SCZ001>056-GAZ040-063>065-077-271600-   
..UPSTATE SOUTH CAROLINA
 
 
 
CITY SKY/WX TMP DP RH WIND PRES REMARKS
 
ANDERSON SUNNY 78 55 44 E3 30.09S  
LIBERTY SUNNY 78 56 45 NE5 30.09S  
SPARTANBURG SUNNY 77 54 44 NE5 30.10R  
CLEMSON SUNNY 78 58 49 NE6 30.10R  
GREENVILLE SUNNY 79 55 43 NE12 30.11R  
GREENWOOD SUNNY 77 58 51 NE6 30.10S  
GREER SUNNY 78 53 41 N12 30.09S  
ROCK HILL SUNNY 78 56 46 NE8 30.10R  
CHESTER SUNNY 79 55 44 N10 30.10R  
LAURENS SUNNY 77 59 53 NE9 30.09S  
 
   
..CENTRAL SOUTH CAROLINA
 
 
 
CITY SKY/WX TMP DP RH WIND PRES REMARKS
 
COLUMBIA APT CLOUDY 83 61 47 NW8 30.05S  
COLUMBIA OWENS PTSUNNY 83 59 44 NW8 30.06S  
ORANGEBURG MOSUNNY 83 61 47 NW5 30.05S  
SUMTER SHAW PTSUNNY 82 62 50 NW6 30.03S  
NEWBERRY MOSUNNY 79 59 50 NE9 30.11S  
AIKEN FAIR 81 61 50 W6 30.10S  
BARNWELL FAIR 84 68 58 CALM 30.05F  
MANNING FAIR 81 70 69 N13G20 30.05S  
CAMDEN FAIR 81 59 47 N8 30.07R  
LANCASTER SUNNY 77 59 53 N8 30.08S  
WINNSBORO MOSUNNY 79 59 50 NE7 30.08R  
 
   
..EASTERN AND COASTAL SOUTH CAROLINA
 
 
 
CITY SKY/WX TMP DP RH WIND PRES REMARKS
 
MYRTLE BEACH SUNNY 82 64 54 NW8 30.05R  
N MYRTLE BCH MOSUNNY 82 65 56 VRB3 30.04S  
CONWAY FAIR 79 64 61 NW3 30.05S HAZE  
MARION FAIR 79 63 57 NW6 30.05S  
HARTSVILLE FAIR 81 57 44 NE6 30.06R  
FLORENCE MOSUNNY 82 62 50 W6 30.05S  
DARLINGTON SUNNY 81 63 54 VRB6 30.06S  
CHARLESTON APT PTSUNNY 83 66 56 N6 30.04S  
MOUNT PLEASANT FAIR 82 66 57 CALM 30.04S  
WALTERBORO MOSUNNY 81 68 65 N8 30.06R  
BEAUFORT CLOUDY 84 71 65 N5 30.04S  
 
   
..EASTERN GEORGIA
 
 
 
CITY SKY/WX TMP DP RH WIND PRES REMARKS
 
AUGUSTA BUSH F MOSUNNY 84 67 56 VRB3 30.05R  
AUGUSTA DANIEL CLOUDY 81 60 48 NW5 30.07S  
THOMSON PTSUNNY 79 61 52 N6 30.12F  
WASHINGTON FAIR 81 64 57 N5 30.09R  
CLAXTON CLOUDY 81 71 72 N3 30.05S  
SYLVANIA CLOUDY 82 72 72 N3 30.06S  
STATESBORO PTSUNNY 82 72 71 N3 30.05S  
SAVANNAH CLOUDY 83 70 64 NE6 30.04S  
 
   
..SOUTHERN NORTH CAROLINA
 
 
 
CITY SKY/WX TMP DP RH WIND PRES REMARKS
 
CHARLOTTE MOSUNNY 78 56 46 NE9G17 30.10S  
MONROE SUNNY 77 57 50 NE12 30.08S  
WADESBORO MOSUNNY 78 59 52 NE5 30.08R  
ROCKINGHAM MOSUNNY 78 60 53 N9 30.07R  
ASHEVILLE PTSUNNY 70 48 45 N14 30.16S  
 

 
 
 
CLICK HERE TO GO TO PREVIOUS BULLETINS.

The Nexlab SC Page
The Nexlab GA Page Main Text Page